When you browse on this site, cookies collect data to enhance your experience and personalize the content and advertising you see.
Visit our Privacy Policy to learn more. By continuing to use the site, you agree to this use of cookies and data.
  • In Italy
  • List of Countries
  • For 7 days
  • Water Temperature
  • Satellite Maps
  • Weather Map
  • Weather Widgets
  • user-avatar
    Login

    Hourly Weather Qala i Naw

    Today, 19 January, Saturday

    Time Temperature Precipitation Wind Pressure Humidity
    00:00 +9°C° 0 mm 1 mps 678 mmHg 41%
    01:00 +8°C° 0 mm 1 mps 679 mmHg 41%
    02:00 +8°C° 0 mm 1 mps 678 mmHg 41%
    03:00 +8°C° 0 mm 1 mps 678 mmHg 40%
    04:00 +8°C° 0 mm 1 mps 678 mmHg 40%
    05:00 +7°C° 0 mm 1 mps 678 mmHg 43%
    06:00 +6°C° 0 mm 1 mps 678 mmHg 46%
    07:00 +6°C° 0 mm 1 mps 678 mmHg 50%
    08:00 +5°C° 0 mm 2 mps 678 mmHg 50%
    09:00 +6°C° 0 mm 2 mps 678 mmHg 51%
    10:00 +6°C° 0 mm 2 mps 677 mmHg 51%
    11:00 +7°C° 0 mm 2 mps 677 mmHg 51%
    12:00 +8°C° 0 mm 3 mps 677 mmHg 51%
    13:00 +7°C° 0 mm 4 mps 676 mmHg 50%
    14:00 +8°C° 0.1 mm 3 mps 676 mmHg 53%
    15:00 +7°C° 0.1 mm 3 mps 676 mmHg 56%
    16:00 +7°C° 0.1 mm 3 mps 676 mmHg 59%
    17:00 +7°C° 0.1 mm 3 mps 677 mmHg 61%
    18:00 +6°C° 0.1 mm 2 mps 677 mmHg 64%
    19:00 +6°C° 0.1 mm 2 mps 678 mmHg 67%
    20:00 +5°C° 0 mm 2 mps 678 mmHg 70%
    21:00 +4°C° 0 mm 2 mps 678 mmHg 73%
    22:00 +4°C° 0 mm 2 mps 678 mmHg 76%
    23:00 +3°C° 0.3 mm 2 mps 678 mmHg 79%

    Tomorrow, 20 January, Sunday

    Time Temperature Precipitation Wind Pressure Humidity
    00:00 +2°C° 0.3 mm 3 mps 678 mmHg 83%
    01:00 +1°C° 0.3 mm 3 mps 678 mmHg 86%
    02:00 +1°C° 1.4 mm 3 mps 678 mmHg 90%
    03:00 0°C° 1.4 mm 3 mps 678 mmHg 93%
    04:00 0°C° 1.4 mm 3 mps 678 mmHg 97%
    05:00 0°C° 1 mm 3 mps 678 mmHg 97%
    06:00 +1°C° 1 mm 2 mps 679 mmHg 98%
    07:00 -1°C° 1 mm 2 mps 680 mmHg 98%
    08:00 -1°C° 0.4 mm 2 mps 680 mmHg 98%
    09:00 -1°C° 0.4 mm 2 mps 681 mmHg 98%
    10:00 -1°C° 0.4 mm 3 mps 681 mmHg 99%
    11:00 0°C° 0.4 mm 3 mps 681 mmHg 98%
    12:00 0°C° 0.4 mm 3 mps 681 mmHg 97%
    13:00 0°C° 0.4 mm 3 mps 681 mmHg 97%
    14:00 +1°C° 0.1 mm 2 mps 682 mmHg 94%
    15:00 +1°C° 0.1 mm 2 mps 682 mmHg 91%
    16:00 +2°C° 0.1 mm 1 mps 682 mmHg 88%
    17:00 +1°C° 0 mm 1 mps 682 mmHg 88%
    18:00 +1°C° 0 mm 1 mps 683 mmHg 89%
    19:00 -1°C° 0 mm 0 mps 684 mmHg 89%
    20:00 0°C° 0 mm 1 mps 684 mmHg 88%
    21:00 -1°C° 0 mm 1 mps 684 mmHg 86%
    22:00 -1°C° 0 mm 1 mps 684 mmHg 85%
    23:00 -1°C° 0 mm 1 mps 684 mmHg 83%

    Day after tomorrow, 21 January, Monday

    Time Temperature Precipitation Wind Pressure Humidity
    00:00 -1°C° 0 mm 1 mps 684 mmHg 82%
    01:00 -1°C° 0 mm 1 mps 684 mmHg 81%
    02:00 -1°C° 0 mm 1 mps 684 mmHg 80%
    03:00 -1°C° 0 mm 1 mps 684 mmHg 80%
    04:00 -1°C° 0 mm 1 mps 684 mmHg 79%
    05:00 -1°C° 0 mm 1 mps 684 mmHg 79%
    06:00 -2°C° 0 mm 1 mps 685 mmHg 79%
    07:00 -2°C° 0 mm 1 mps 685 mmHg 79%
    08:00 -1°C° 0 mm 1 mps 685 mmHg 75%
    09:00 0°C° 0 mm 1 mps 685 mmHg 71%
    10:00 +1°C° 0 mm 1 mps 685 mmHg 67%
    11:00 +2°C° 0 mm 1 mps 684 mmHg 68%
    12:00 +2°C° 0 mm 1 mps 684 mmHg 69%
    13:00 +3°C° 0 mm 1 mps 683 mmHg 70%
    14:00 +3°C° 0 mm 1 mps 683 mmHg 71%
    15:00 +3°C° 0 mm 1 mps 683 mmHg 71%
    16:00 +3°C° 0 mm 1 mps 682 mmHg 72%
    17:00 +2°C° 0 mm 1 mps 683 mmHg 75%
    18:00 +1°C° 0 mm 1 mps 683 mmHg 78%
    19:00 +1°C° 0 mm 1 mps 683 mmHg 80%
    20:00 +1°C° 0 mm 1 mps 683 mmHg 78%
    21:00 +1°C° 0 mm 1 mps 683 mmHg 76%
    22:00 0°C° 0 mm 1 mps 683 mmHg 74%
    23:00 0°C° 0 mm 1 mps 683 mmHg 73%

    22 January, Tuesday

    Time Temperature Precipitation Wind Pressure Humidity
    00:00 +1°C° 0 mm 1 mps 682 mmHg 71%
    01:00 +1°C° 0 mm 1 mps 682 mmHg 70%
    02:00 +1°C° 0 mm 1 mps 682 mmHg 68%
    03:00 +1°C° 0 mm 1 mps 681 mmHg 67%
    04:00 +1°C° 0 mm 1 mps 681 mmHg 65%
    05:00 +1°C° 0 mm 1 mps 681 mmHg 64%
    06:00 +1°C° 0 mm 1 mps 681 mmHg 63%
    07:00 +1°C° 0 mm 1 mps 681 mmHg 62%
    08:00 +2°C° 0 mm 1 mps 681 mmHg 59%
    09:00 +3°C° 0 mm 1 mps 681 mmHg 55%
    10:00 +5°C° 0 mm 1 mps 681 mmHg 51%
    11:00 +5°C° 0 mm 1 mps 681 mmHg 50%
    12:00 +6°C° 0 mm 1 mps 680 mmHg 48%
    13:00 +7°C° 0 mm 1 mps 680 mmHg 46%
    14:00 +7°C° 0 mm 1 mps 679 mmHg 48%
    15:00 +7°C° 0 mm 1 mps 679 mmHg 50%
    16:00 +6°C° 0 mm 1 mps 679 mmHg 52%
    17:00 +6°C° 0 mm 1 mps 679 mmHg 54%
    18:00 +5°C° 0 mm 1 mps 680 mmHg 56%
    19:00 +4°C° 0 mm 1 mps 680 mmHg 58%
    20:00 +4°C° 0 mm 1 mps 680 mmHg 57%
    21:00 +4°C° 0 mm 1 mps 680 mmHg 56%
    22:00 +3°C° 0 mm 2 mps 680 mmHg 55%
    23:00 +3°C° 0 mm 2 mps 680 mmHg 57%

    23 January, Wednesday

    Time Temperature Precipitation Wind Pressure Humidity
    00:00 +3°C° 0 mm 2 mps 680 mmHg 58%
    01:00 +3°C° 0 mm 2 mps 680 mmHg 59%
    02:00 +3°C° 0 mm 2 mps 680 mmHg 60%
    03:00 +3°C° 0 mm 2 mps 680 mmHg 61%
    04:00 +2°C° 0 mm 3 mps 680 mmHg 63%
    05:00 +2°C° 0 mm 3 mps 680 mmHg 64%
    06:00 +2°C° 0 mm 3 mps 681 mmHg 65%
    07:00 +2°C° 0 mm 3 mps 681 mmHg 66%
    08:00 +4°C° 0 mm 2 mps 681 mmHg 62%
    09:00 +5°C° 0 mm 2 mps 682 mmHg 59%
    10:00 +6°C° 0 mm 2 mps 682 mmHg 56%
    11:00 +7°C° 0 mm 2 mps 682 mmHg 53%
    12:00 +7°C° 0 mm 2 mps 681 mmHg 50%
    13:00 +8°C° 0 mm 2 mps 681 mmHg 47%
    14:00 +9°C° 0 mm 1 mps 681 mmHg 48%
    15:00 +9°C° 0 mm 1 mps 681 mmHg 49%
    16:00 +9°C° 0 mm 1 mps 681 mmHg 50%
    17:00 +8°C° 0 mm 1 mps 681 mmHg 53%
    18:00 +6°C° 0 mm 2 mps 681 mmHg 57%
    19:00 +4°C° 0 mm 3 mps 682 mmHg 61%
    20:00 +4°C° 0 mm 3 mps 682 mmHg 61%
    21:00 +3°C° 0 mm 3 mps 682 mmHg 61%
    22:00 +3°C° 0 mm 3 mps 682 mmHg 61%
    23:00 +3°C° 0 mm 3 mps 682 mmHg 60%

    24 January, Thursday

    Time Temperature Precipitation Wind Pressure Humidity
    00:00 +3°C° 0 mm 2 mps 682 mmHg 59%
    01:00 +3°C° 0 mm 2 mps 682 mmHg 59%
    02:00 +3°C° 0 mm 2 mps 682 mmHg 58%
    03:00 +3°C° 0 mm 2 mps 682 mmHg 58%
    04:00 +3°C° 0 mm 2 mps 682 mmHg 58%
    05:00 +3°C° 0 mm 2 mps 683 mmHg 58%
    06:00 +3°C° 0 mm 2 mps 683 mmHg 58%
    07:00 +2°C° 0 mm 3 mps 683 mmHg 58%
    08:00 +4°C° 0 mm 2 mps 683 mmHg 54%
    09:00 +6°C° 0 mm 2 mps 684 mmHg 51%
    10:00 +7°C° 0 mm 2 mps 684 mmHg 47%
    11:00 +8°C° 0 mm 2 mps 684 mmHg 45%
    12:00 +9°C° 0 mm 2 mps 683 mmHg 43%
    13:00 +10°C° 0 mm 2 mps 683 mmHg 40%
    14:00 +11°C° 0 mm 1 mps 683 mmHg 40%
    15:00 +11°C° 0 mm 1 mps 682 mmHg 39%
    16:00 +10°C° 0 mm 1 mps 682 mmHg 38%
    17:00 +9°C° 0 mm 1 mps 683 mmHg 41%
    18:00 +7°C° 0 mm 2 mps 683 mmHg 45%
    19:00 +6°C° 0 mm 2 mps 683 mmHg 48%
    20:00 +5°C° 0 mm 3 mps 683 mmHg 49%
    21:00 +4°C° 0 mm 3 mps 683 mmHg 49%
    22:00 +4°C° 0 mm 3 mps 683 mmHg 50%
    23:00 +4°C° 0 mm 3 mps 683 mmHg 50%
    Show more